Location: Bosdarros
(43.2167°N, 0.3667°W)
Time: 02:15:26
(UTC+00:00)

ERS-1 Rocket - Pass Details

Date: 22 April 2021
Orbit: 753 x 757 km, 98.4° (Epoch: 15 May)

Event Time Altitude Azimuth Distance (km) Brightness Sun altitude
Exits shadow 21:33:52 74° 100° (E) 787 2.8 -25.1°
Maximum altitude 21:34:05 76° 74° (ENE) 782 2.9 -25.1°
Drops below altitude 10° 21:39:06 10° 350° (N) 2,287 6.2 -25.7°
Sets 21:41:24 0° 349° (NNW) 3,216 7.2 -25.9°
